{"data":{"norad_id":45727,"epoch":"2026-09-19T23:57:53.711712Z","epoch_age_seconds":57810,"freshness":"FRESH","line1":"1 45727U 20037E   26262.99853833  .00001471  00000+0  10799-3 0  9994","line2":"2 45727  97.8134  95.3259 0011157 184.9267 175.1851 15.05036352339759","mean_motion":15.05036352,"eccentricity":0.0011157,"inclination_deg":97.8134,"raan_deg":95.3259,"arg_perigee_deg":184.9267,"mean_anomaly_deg":175.1851,"bstar":0.00010799,"rev_number":33975,"period_min":95.678752083724,"perigee_km":543.66282012567,"apogee_km":559.12537581769,"semimajor_km":6929.5310979717,"source":"CELESTRAK","updated_at":"2026-09-20T09:00:48.033954Z"}}